Weather Roundup
Issued by NWS

Home | Current Version | Previous Version | Text Only | Print | Product List | Glossary On
Versions: 1 2 3 4 5 6 7 8 9 10 11 12 13 14 15 16 17 18 19 20 21 22 23 24 25 26 27 28 29 30 31 32 33 34 35 36 37 38 39 40 41 42 43 44 45 46 47 48 49 50
000
NZUS93 KARX 311510
HRRWXR

CURRENT HOURLY OBSERVATIONS ACROSS
MUCH OF THE UPPER MISSISSIPPI VALLEY
NATIONAL WEATHER SERVICE LA CROSSE WI
900 AM CST SAT JAN 31 2015


...SOUTHEAST MINNESOTA...


CITY           SKY/WX    TMP DP  RH WIND       PRES   REMARKS
ROCHESTER      CLOUDY    24  21  88 NW3       30.15R
ROCHESTER/MAYO CLOUDY    26  21  80 W3        30.16R
WINONA         CLOUDY    28  21  74 CALM      30.19R
AUSTIN         PTSUNNY   21  18  86 CALM      30.14S
ALBERT LEA     MOSUNNY   25  23  93 CALM      30.14R
DODGE CENTER   CLOUDY    25  25 100 CALM      30.15R
PRESTON        CLOUDY    22  19  88 CALM      30.15R
OWATONNA       CLOUDY    27  23  86 CALM      30.15R FOG
FARIBAULT      CLOUDY    25  23  93 CALM      30.18R FOG
$$

...ELSEWHERE IN MINNESOTA...


CITY           SKY/WX    TMP DP  RH WIND       PRES   REMARKS
MINNEAPOLIS    CLOUDY    27  22  81 N9        30.18R WCI  18
INTNL FALLS    PTCLDY     4  -2  76 N8        30.29R WCI  -9
DULUTH         LGT SNOW  19  11  70 NW9       30.16R WCI   8
RED WING       CLOUDY    27  21  80 CALM      30.17R
REDWOOD FALLS  CLOUDY    25  23  92 N7        30.19R FOG     WCI  17
MANKATO        CLOUDY    25  21  86 NE9       30.16R VSB 1/4 WCI  15
WORTHINGTON    CLOUDY    23  21  93 NE14      30.16R VSB 1   WCI  11
FAIRMONT       CLOUDY    25  21  86 N10       30.15R WCI  15
$$

...SOUTHWEST WISCONSIN...


CITY           SKY/WX    TMP DP  RH WIND       PRES   REMARKS
LA CROSSE      CLOUDY    26  17  68 S7        30.18R WCI  18
PRAIRIE DU CHI MOSUNNY   22  17  82 CALM      30.19S
BOSCOBEL       MOSUNNY   20  15  81 CALM      30.20S
LONE ROCK      SUNNY     20  15  81 CALM      30.19S
PLATTEVILLE    MOSUNNY   25  21  84 S6        30.17S WCI  18
FORT MC COY    CLOUDY    27  17  68 CALM      30.18S
CAMP DOUGLAS   CLOUDY    27  21  80 W3        30.16R
VIROQUA        CLOUDY    25  19  79 W5        30.14S WCI  19
WIS DELLS      CLOUDY    25  17  72 SW5       30.16S WCI  19
$$

...ELSEWHERE IN WISCONSIN...


CITY           SKY/WX    TMP DP  RH WIND       PRES   REMARKS
MILWAUKEE      MOSUNNY   29  18  63 W13       30.18F WCI  19
MADISON        PTSUNNY   25  16  68 VRB3      30.17F
GREEN BAY      CLOUDY    24  17  74 SW7       30.16S WCI  16
EAU CLAIRE     CLOUDY    24  15  68 NE5       30.16R WCI  18
BLACK RVR FLS  CLOUDY    26  17  68 CALM      30.16S
MEDFORD        CLOUDY    20  16  84 N6        30.12R WCI  13
WAUSAU         CLOUDY    20  13  74 NW5       30.12R WCI  13
WIS RAPIDS     CLOUDY    24  15  68 CALM      30.15F
MARSHFIELD     CLOUDY    22  14  71 W5        30.13S WCI  16
RICE LAKE      CLOUDY    24  19  83 N8        30.19R WCI  15
$$

...NORTHEAST IOWA...


CITY           SKY/WX    TMP DP  RH WIND       PRES   REMARKS
DECORAH        MOSUNNY   23  19  86 CALM      30.15S
MASON CITY     PTSUNNY   27  24  89 W5        30.15R WCI  22
CHARLES CITY   MOSUNNY   23  23 100 CALM      30.16R
OELWEIN        PTSUNNY   27  23  86 S5        30.17S WCI  21
$$

...ELSEWHERE IN IOWA...


CITY           SKY/WX    TMP DP  RH WIND       PRES   REMARKS
DES MOINES     CLOUDY    37  31  78 SW8       30.19S WCI  31
IOWA CITY      CLOUDY    32  25  75 VRB3      30.22F
FORT DODGE     CLOUDY    32  27  80 N3        30.16R
$$

...NORTHERN ILLINOIS...


CITY           SKY/WX    TMP DP  RH WIND       PRES   REMARKS
CHICAGO-OHARE  MOSUNNY   28  20  71 SW9       30.23S WCI  19
CHICAGO-MIDWAY PTSUNNY   31  22  69 SW9       30.24F WCI  23
MOLINE         CLOUDY    33  24  69 SW10      30.22F WCI  25
ROCKFORD       PTSUNNY   28  20  71 SW5       30.23F WCI  23
PEORIA         CLOUDY    31  22  69 SW9       30.27F WCI  23
$$

NOTE: "FAIR" INDICATES FEW OR NO CLOUDS BELOW 12,000 FEET WITH NO
SIGNIFICANT WEATHER AND/OR OBSTRUCTIONS TO VISIBILITY. WIND
SPEEDS ARE IN MILES-PER-HOUR.



USA.gov is the U.S. government's official web portal to all federal, state and local government web resources and services.